• In Deutschland
  • Länderverzeichnis
  • Für 7 Tage
  • Wassertemperatur
  • Satellitenkarten
  • Wetterkarte
  • Widgets
  • user-avatar
    Anmelden

    Stündliche Wetter Straubing

    Heute, 18 Oktober, Mittwoch

    Zeit Temperatur Niederschläge Wind Luftdruck Luftfeuchtigkeit
    00:00 +12°C° 0 mm 0 m/S 735 mmHg 84%
    01:00 +11°C° 0 mm 0 m/S 735 mmHg 83%
    02:00 +11°C° 0 mm 0 m/S 735 mmHg 84%
    03:00 +11°C° 0 mm 0 m/S 734 mmHg 84%
    04:00 +11°C° 0 mm 0 m/S 734 mmHg 85%
    05:00 +10°C° 0 mm 0 m/S 734 mmHg 85%
    06:00 +10°C° 0 mm 0 m/S 734 mmHg 86%
    07:00 +10°C° 0 mm 0 m/S 734 mmHg 85%
    08:00 +12°C° 0 mm 1 m/S 734 mmHg 79%
    09:00 +14°C° 0 mm 1 m/S 734 mmHg 74%
    10:00 +16°C° 0 mm 1 m/S 733 mmHg 68%
    11:00 +18°C° 0 mm 1 m/S 733 mmHg 65%
    12:00 +20°C° 0 mm 1 m/S 733 mmHg 61%
    13:00 +18°C° 0 mm 0 m/S 733 mmHg 62%
    14:00 +18°C° 0 mm 0 m/S 733 mmHg 65%
    15:00 +18°C° 0 mm 0 m/S 733 mmHg 68%
    16:00 +17°C° 0 mm 0 m/S 732 mmHg 71%
    17:00 +16°C° 0 mm 0 m/S 732 mmHg 76%
    18:00 +14°C° 0 mm 0 m/S 733 mmHg 81%
    19:00 +12°C° 0 mm 0 m/S 733 mmHg 86%
    20:00 +12°C° 0 mm 0 m/S 733 mmHg 87%
    21:00 +11°C° 0 mm 0 m/S 733 mmHg 88%
    22:00 +11°C° 0 mm 0 m/S 733 mmHg 89%
    23:00 +10°C° 0 mm 0 m/S 733 mmHg 89%

    Morgen, 19 Oktober, Donnerstag

    Zeit Temperatur Niederschläge Wind Luftdruck Luftfeuchtigkeit
    00:00 +10°C° 0 mm 0 m/S 733 mmHg 90%
    01:00 +10°C° 0 mm 0 m/S 733 mmHg 90%
    02:00 +9°C° 0 mm 0 m/S 733 mmHg 91%
    03:00 +9°C° 0 mm 0 m/S 733 mmHg 91%
    04:00 +9°C° 0 mm 0 m/S 733 mmHg 91%
    05:00 +9°C° 0 mm 0 m/S 733 mmHg 91%
    06:00 +10°C° 0 mm 1 m/S 733 mmHg 91%
    07:00 +9°C° 0 mm 1 m/S 733 mmHg 92%
    08:00 +12°C° 0 mm 1 m/S 733 mmHg 84%
    09:00 +14°C° 0 mm 1 m/S 733 mmHg 77%
    10:00 +16°C° 0 mm 1 m/S 733 mmHg 70%
    11:00 +18°C° 0 mm 1 m/S 733 mmHg 65%
    12:00 +20°C° 0 mm 1 m/S 733 mmHg 60%
    13:00 +21°C° 0 mm 1 m/S 733 mmHg 55%
    14:00 +20°C° 0 mm 1 m/S 733 mmHg 59%
    15:00 +20°C° 0 mm 1 m/S 732 mmHg 63%
    16:00 +19°C° 0 mm 1 m/S 732 mmHg 67%
    17:00 +16°C° 0 mm 1 m/S 732 mmHg 72%
    18:00 +15°C° 0 mm 1 m/S 732 mmHg 77%
    19:00 +13°C° 0 mm 1 m/S 733 mmHg 81%
    20:00 +12°C° 0 mm 1 m/S 733 mmHg 81%
    21:00 +12°C° 0 mm 1 m/S 733 mmHg 81%
    22:00 +12°C° 0 mm 1 m/S 733 mmHg 81%
    23:00 +11°C° 0 mm 1 m/S 733 mmHg 80%

    übermorgen, 20 Oktober, Freitag

    Zeit Temperatur Niederschläge Wind Luftdruck Luftfeuchtigkeit
    00:00 +11°C° 0 mm 1 m/S 733 mmHg 80%
    01:00 +11°C° 0 mm 1 m/S 733 mmHg 79%
    02:00 +10°C° 0 mm 1 m/S 733 mmHg 79%
    03:00 +10°C° 0 mm 1 m/S 733 mmHg 78%
    04:00 +10°C° 0 mm 1 m/S 733 mmHg 78%
    05:00 +10°C° 0 mm 1 m/S 733 mmHg 78%
    06:00 +9°C° 0 mm 1 m/S 733 mmHg 78%
    07:00 +9°C° 0 mm 1 m/S 734 mmHg 78%
    08:00 +11°C° 0 mm 1 m/S 734 mmHg 72%
    09:00 +13°C° 0 mm 1 m/S 734 mmHg 66%
    10:00 +16°C° 0 mm 1 m/S 734 mmHg 60%
    11:00 +18°C° 0 mm 1 m/S 734 mmHg 57%
    12:00 +19°C° 0 mm 1 m/S 734 mmHg 55%
    13:00 +20°C° 0 mm 1 m/S 734 mmHg 53%
    14:00 +20°C° 0 mm 1 m/S 734 mmHg 58%
    15:00 +19°C° 0 mm 1 m/S 734 mmHg 63%
    16:00 +19°C° 0 mm 1 m/S 734 mmHg 67%
    17:00 +16°C° 0 mm 1 m/S 734 mmHg 72%
    18:00 +15°C° 0 mm 1 m/S 735 mmHg 76%
    19:00 +13°C° 0 mm 1 m/S 735 mmHg 80%
    20:00 +13°C° 0 mm 1 m/S 735 mmHg 81%
    21:00 +13°C° 0 mm 1 m/S 736 mmHg 81%
    22:00 +13°C° 0 mm 1 m/S 736 mmHg 82%
    23:00 +13°C° 0 mm 1 m/S 736 mmHg 84%

    21 Oktober, Samstag

    Zeit Temperatur Niederschläge Wind Luftdruck Luftfeuchtigkeit
    00:00 +12°C° 0 mm 1 m/S 736 mmHg 87%
    01:00 +12°C° 0 mm 1 m/S 736 mmHg 89%
    02:00 +11°C° 0 mm 1 m/S 736 mmHg 90%
    03:00 +11°C° 0 mm 1 m/S 735 mmHg 90%
    04:00 +11°C° 0 mm 1 m/S 735 mmHg 91%
    05:00 +11°C° 0 mm 1 m/S 735 mmHg 90%
    06:00 +11°C° 0 mm 1 m/S 735 mmHg 90%
    07:00 +11°C° 0 mm 1 m/S 736 mmHg 90%
    08:00 +12°C° 0 mm 2 m/S 735 mmHg 84%
    09:00 +14°C° 0 mm 2 m/S 735 mmHg 79%
    10:00 +15°C° 0 mm 2 m/S 735 mmHg 74%
    11:00 +16°C° 0 mm 2 m/S 735 mmHg 71%
    12:00 +17°C° 0 mm 2 m/S 735 mmHg 69%
    13:00 +18°C° 0 mm 2 m/S 734 mmHg 67%
    14:00 +18°C° 0 mm 2 m/S 734 mmHg 69%
    15:00 +18°C° 0 mm 2 m/S 734 mmHg 71%
    16:00 +19°C° 0 mm 1 m/S 733 mmHg 73%
    17:00 +16°C° 0 mm 1 m/S 733 mmHg 77%
    18:00 +15°C° 0 mm 1 m/S 733 mmHg 81%
    19:00 +13°C° 0 mm 1 m/S 734 mmHg 85%
    20:00 +13°C° 0 mm 1 m/S 734 mmHg 86%
    21:00 +13°C° 0 mm 1 m/S 734 mmHg 87%
    22:00 +13°C° 0 mm 2 m/S 734 mmHg 88%
    23:00 +13°C° 0,2 mm 2 m/S 735 mmHg 89%

    22 Oktober, Sonntag

    Zeit Temperatur Niederschläge Wind Luftdruck Luftfeuchtigkeit
    00:00 +13°C° 0,2 mm 2 m/S 735 mmHg 90%
    01:00 +12°C° 0,2 mm 3 m/S 735 mmHg 92%
    02:00 +12°C° 0,5 mm 2 m/S 735 mmHg 92%
    03:00 +12°C° 0,5 mm 2 m/S 735 mmHg 93%
    04:00 +10°C° 0,5 mm 2 m/S 735 mmHg 94%
    05:00 +10°C° 0,3 mm 2 m/S 735 mmHg 94%
    06:00 +10°C° 0,3 mm 2 m/S 735 mmHg 95%
    07:00 +10°C° 0,3 mm 2 m/S 735 mmHg 95%
    08:00 +10°C° 0,3 mm 3 m/S 735 mmHg 92%
    09:00 +10°C° 0,3 mm 3 m/S 735 mmHg 89%
    10:00 +10°C° 0,3 mm 3 m/S 736 mmHg 87%
    11:00 +10°C° 0,2 mm 4 m/S 736 mmHg 84%
    12:00 +10°C° 0,2 mm 4 m/S 735 mmHg 82%
    13:00 +10°C° 0,2 mm 4 m/S 735 mmHg 79%
    14:00 +10°C° 0,1 mm 4 m/S 735 mmHg 81%
    15:00 +9°C° 0,1 mm 3 m/S 736 mmHg 82%
    16:00 +9°C° 0,1 mm 3 m/S 736 mmHg 83%
    17:00 +8°C° 0,1 mm 3 m/S 736 mmHg 85%
    18:00 +8°C° 0,1 mm 2 m/S 736 mmHg 87%
    19:00 +7°C° 0,1 mm 2 m/S 736 mmHg 89%
    20:00 +7°C° 0 mm 3 m/S 736 mmHg 89%
    21:00 +7°C° 0 mm 3 m/S 736 mmHg 89%
    22:00 +7°C° 0 mm 3 m/S 736 mmHg 90%
    23:00 +7°C° 0 mm 3 m/S 736 mmHg 90%

    23 Oktober, Montag

    Zeit Temperatur Niederschläge Wind Luftdruck Luftfeuchtigkeit
    00:00 +5°C° 0 mm 3 m/S 736 mmHg 91%
    01:00 +5°C° 0 mm 3 m/S 736 mmHg 92%
    02:00 +5°C° 0,1 mm 3 m/S 736 mmHg 91%
    03:00 +6°C° 0,1 mm 4 m/S 736 mmHg 90%
    04:00 +6°C° 0,1 mm 4 m/S 736 mmHg 89%
    05:00 +6°C° 0,2 mm 4 m/S 736 mmHg 89%
    06:00 +6°C° 0,2 mm 4 m/S 736 mmHg 89%
    07:00 +6°C° 0,2 mm 4 m/S 736 mmHg 89%
    08:00 +6°C° 0,1 mm 4 m/S 737 mmHg 89%
    09:00 +7°C° 0,1 mm 4 m/S 737 mmHg 88%
    10:00 +7°C° 0,1 mm 4 m/S 737 mmHg 87%
    11:00 +7°C° 0,4 mm 4 m/S 737 mmHg 87%
    12:00 +7°C° 0,4 mm 4 m/S 738 mmHg 88%
    13:00 +8°C° 0,4 mm 4 m/S 738 mmHg 89%
    14:00 +8°C° 0,1 mm 4 m/S 738 mmHg 88%
    15:00 +8°C° 0,1 mm 4 m/S 738 mmHg 88%
    16:00 +8°C° 0,1 mm 4 m/S 738 mmHg 88%
    17:00 +9°C° 0,2 mm 3 m/S 739 mmHg 89%
    18:00 +8°C° 0,2 mm 3 m/S 739 mmHg 90%
    19:00 +8°C° 0,2 mm 2 m/S 739 mmHg 92%
    20:00 +8°C° 0,1 mm 2 m/S 740 mmHg 93%
    21:00 +8°C° 0,1 mm 2 m/S 740 mmHg 94%
    22:00 +8°C° 0,1 mm 2 m/S 740 mmHg 94%
    23:00 +8°C° 0,1 mm 2 m/S 740 mmHg 95%
    Mehr zeigen